OpenBCM V2.0.3 (Linux)

Packet Radio Mailbox

IZ3LSV

[San Dona' di P. JN]

 Login: GUEST





  
I0OJJ  > AMSAT    12.09.26 18:25l 333 Lines 15655 Bytes #999 (0) @ WW
BID : 6JT_IR0EQ
Read: GUEST
Subj: 2Line Orbital Elements
Path: IZ3LSV<IW8PGT<LU4ECL<VK4OT<VK7AX<GB7CIP<I0OJJ<IR0EQ
Sent: 260912/0027z @:IR0EQ.ITA.EU [Rome] $:6JT_IR0EQ

>From i0ojj%ir0eq.ita.eu@i0ojj.ampr.org Sat Sep 12 02:28:43 2026
Received: from i0ojj.ampr.org by i0ojj.ampr.org (JNOS2.0q.1) with SMTP
	id AA17066999 ; Sat, 12 Sep 2026 02:28:43 +0200
Message-Id: <6JT_IR0EQ@i0ojj.bbs>
>From: i0ojj@ir0eq.ita.eu
X-JNOS-User-Port: Telnet   (i0ojj @ 44.27.18.9)  ->   Sending message

>From i0ojj@rgate.ampr.org Sat Sep 12 02:27:50 2026
Received: from rgate.ampr.org by rgate.ampr.org (JNOS2.0q.1) with SMTP
	id AA8489 ; Sat, 12 Sep 2026 02:27:50 +0200
Received: by rgate.ampr.org with SMTP
	id AA8486 ; Sat, 12 Sep 2026 02:27:02 +0200
Message-Id: <8487@rgate.ampr.org>
>From: i0ojj@rgate.ampr.org

SB KEPS @ AMSAT  $ORB26255.1
2Line Orbital Elements 26255.AMSAT

QST de W1STR

AMSAT Orbital Elements for Amateur Satellites in TLE Format
>From Orbital Analysis Office
New England Sci-Tech STEM Education Center
Natick MA September 12, 2026
To all radio amateurs


These element sets describe the orbits of various satellites 
in use by the amateur radio community. For details see:
www.amsat.org/keplerian-elements-formats/

A daily update of element sets is available at:
www.amsat.org/tle/daily-bulletin.txt
or without bulletin text:
www.amsat.org/tle/dailytle.txt


AO-07
1 07530U 74089B   26254.65582337 -.00000030  00000-0  10002-3 0  9991
2 07530 101.9921 268.8066 0012067 327.7730 148.3467 12.53699569371358
UO-11
1 14781U 84021B   26254.39783869  .00001076  00000-0  11452-3 0  9998
2 14781  97.8162 219.0657 0006041 257.1816 102.8728 14.90983105269978
LO-19
1 20442U 90005G   26254.55488879  .00000055  00000-0  36209-4 0  9993
2 20442  98.8827 278.7297 0010740 316.8419  43.1922 14.34143159914776
AO-27
1 22825U 93061C   26254.70483866  .00000054  00000-0  37474-4 0  9997
2 22825  98.6802 322.0527 0007992 199.1716 160.9167 14.30960569719376
FO-29
1 24278U 96046B   26254.81257411 -.00000023  00000-0  13861-4 0  9995
2 24278  98.5171  91.8089 0349065 231.5310 125.4035 13.53277830484884
GO-32
1 25397U 98043D   26254.53306475  .00000022  00000-0  29510-4 0  9997
2 25397  99.0148 249.5006 0001186  20.9797 339.1429 14.24442295463624
ISS
1 25544U 98067A   26254.62728022  .00005127  00000-0  10088-3 0  9993
2 25544  51.6304 232.2787 0004958 129.1564 230.9865 15.49080967585152
NO-44
1 26931U 01043C   26254.76675992  .00000055  00000-0  51594-4 0  9997
2 26931  67.0525  20.3307 0005728 272.1602  87.8844 14.31982736302845
SO-50
1 27607U 02058C   26253.65485524  .00000670  00000-0  96660-4 0  9998
2 27607  64.5511 224.5159 0072222 246.8033 112.5455 14.83203997277134
CO-55
1 27844U 03031E   26254.79196727  .00000177  00000-0  95450-4 0  9991
2 27844  98.6771 262.2759 0008499 297.8770  62.1548 14.24379737204007
RS-22
1 27939U 03042A   26254.86786404  .00000706  00000-0  11672-3 0  9994
2 27939  98.3478  81.6998 0011335   0.4818 110.9602 14.73596536228310
CO-65
1 32785U 08021C   26254.60501566  .00003105  00000-0  19432-3 0  9995
2 32785  97.8368 237.9098 0010573  94.0324 266.2113 15.10138903998237
CO-66
1 32791U 08021J   26254.75489428  .00015411  00000-0  44929-3 0  9992
2 32791  97.7561 256.9922 0003369  48.2640 311.8890 15.35463991   555
RS-30
1 32953U 08025A   26254.85386093  .00000052  00000-0  30348-3 0  9996
2 32953  82.5036 301.5402 0020653 121.3523 238.9581 12.43182860830468
SRMSAT
1 37841U 11058D   26254.03014793  .00000364  00000-0  53707-4 0  9993
2 37841  19.9714 259.8736 0011967  68.9880 314.4614 14.11591615769963
ZACUBE-1
1 39417U 13066B   26254.44477925  .00004104  00000-0  31454-3 0  9990
2 39417  97.8126 217.2194 0040166 324.6811  35.1753 15.01778421693678
Delfi-N3xt
1 39428U 13066N   26254.68766808  .00003951  00000-0  33967-3 0  9999
2 39428  97.8299 174.9544 0071310 279.2351  80.0809 14.96058885687557
GOMX-1
1 39430U 13066Q   26254.79409591  .00001738  00000-0  26462-3 0  9990
2 39430  97.6440  89.7989 0128355 158.5173 202.1489 14.69686805682639
LO-74
1 39440U 13066AA  26254.39308194  .00002498  00000-0  23077-3 0  9997
2 39440  97.8973 203.7978 0058505 101.1140 259.6665 14.94243362689866
AO-73
1 39444U 13066AE  26254.46718932  .00005513  00000-0  33400-3 0  9996
2 39444  97.8373 227.8257 0033503 270.0863  89.6526 15.10554640692684
DTUSAT-2
1 40030U 14033W   26254.53302807  .00004642  00000-0  24563-3 0  9994
2 40030  98.0909 257.8329 0006268 308.8392  51.2279 15.15986519665761
LILACSAT-2
1 40908U 15049K   26254.81610262  .00014880  00000-0  23004-3 0  9998
2 40908  97.4565 295.0830 0004606 302.2652  57.8155 15.54183023609190
Lapan A3
1 41603U 16040E   26254.85510247  .00002600  00000-0  82258-4 0  9993
2 41603  97.1560 248.2154 0011989  68.7052 291.5470 15.33579218568096
CAS-2T
1 41847U 16066G   26254.46193808  .00000706  00000-0  10873-3 0  9996
2 41847  98.3759 329.2060 0340362 227.6064 129.5863 14.44835191517258
TechnoSat
1 42829U 17042E   26254.40633343  .00001675  00000-0  12065-3 0  9990
2 42829  97.4390  48.8679 0018106 154.8825 205.3287 15.05381806499679
AO-91
1 43017U 17073E   26254.10357527  .00007160  00000-0  30397-3 0  9991
2 43017  97.4565 119.5640 0148355  32.2345 328.7848 15.13854575478388
S-Net D
1 43186U 18014G   26254.60589443  .00003779  00000-0  19255-3 0  9995
2 43186  97.5260 158.8517 0009884  80.8318 279.4033 15.17354573471860
S-Net B
1 43187U 18014H   26254.15747158  .00003696  00000-0  18854-3 0  9997
2 43187  97.5266 158.3950 0010464  78.0861 282.1545 15.17318336471799
S-Net A
1 43188U 18014J   26254.60429973  .00003761  00000-0  19155-3 0  9998
2 43188  97.5276 159.0647 0010356  77.4729 282.7662 15.17363167471864
S-Net C
1 43189U 18014K   26254.68945610  .00003882  00000-0  19785-3 0  9991
2 43189  97.5291 159.2370 0011615  70.5531 289.6956 15.17312752470428
Ten-Koh
1 43677U 18084G   26254.53238538  .00001117  00000-0  87421-4 0  9990
2 43677  98.0743  90.5489 0009279 177.8912 182.2353 15.03237366429136
PO-101
1 43678U 18084H   26254.85521816  .00001107  00000-0  92523-4 0  9998
2 43678  98.1180  94.8790 0011321 238.0227 121.9896 15.00718946429211
QO-100
1 43700U 18090A   26254.80044766  .00000128  00000-0  00000+0 0  9996
2 43700   0.0157 133.2827 0002564  71.3795 100.1069  1.00273468 28541
MinXSS-2
1 43758U 18099A   26254.47703049  .00035816  00000-0  57404-3 0  9993
2 43758  97.4458 333.6386 0005090 305.3261  54.7516 15.52998300427498
AO-95
1 43770U 18099N   26254.67693615  .00008446  00000-0  30815-3 0  9992
2 43770  97.4301 314.6655 0009281  50.4536 309.7522 15.28357947426427
SNUSat 2
1 43782U 18099AA  26254.69746231  .00005865  00000-0  25213-3 0  9998
2 43782  97.3975 306.7828 0009695   2.1027 358.0249 15.22995846426195
SnugLite
1 43784U 18099AC  26254.65050183  .00008700  00000-0  31336-3 0  9994
2 43784  97.3786 308.1415 0002534  20.3638 339.7703 15.28803555426529
ITASat 1
1 43786U 18099AE  26254.68229604  .00005205  00000-0  24430-3 0  9999
2 43786  97.3943 304.4848 0013525  55.5576 304.6936 15.19990230426041
EAGLET 1
1 43790U 18099AJ  26254.67783338  .00003075  00000-0  17512-3 0  9998
2 43790  97.4149 302.0489 0012240  52.5742 307.6601 15.13491193425415
ESEO
1 43792U 18099AL  26254.65037422  .00001553  00000-0  11504-3 0  9998
2 43792  97.3906 288.3189 0012811  43.2531 316.9699 15.04456795424808
JO-97
1 43803U 18099AX  26254.66885498  .00013947  00000-0  39719-3 0  9994
2 43803  97.4046 317.9234 0004304 334.6016  25.5016 15.36209341426895
Suomi 100
1 43804U 18099AY  26254.70392741  .00008794  00000-0  30296-3 0  9999
2 43804  97.4103 314.8470 0008737 342.5364  17.5575 15.30228321426643
ISAT
1 43879U 18111D   26254.39756839  .00387689  60214-4  11179-2 0  9991
2 43879  97.5801 197.6555 0007433 127.2400 232.9553 15.93000379424741
UWE-4
1 43880U 18111E   26254.34169136  .00033377  00000-0  56497-3 0  9994
2 43880  97.5819 187.0360 0007792  34.5766 325.5991 15.51465540424117
Prox-1
1 44339U 19036A   26254.42536995  .00010449  00000-0  96734-3 0  9994
2 44339  23.9937 257.3466 0004933 319.1541  40.8588 14.92413360386366
Taurus 1
1 44530U 19059C   26254.88164928  .00003815  00000-0  60414-3 0  9990
2 44530  98.6490  65.1874 0009082  44.9260 315.2679 14.72862786371408
TO-108
1 44881U 19093C   26254.80729038  .00000164  00000-0  24451-4 0  9994
2 44881  97.7468 324.8987 0013920 156.1284 204.0581 14.86627110364280
RS-44
1 44909U 19096E   26254.54969423  .00000028  00000-0  75092-4 0  9999
2 44909  82.5177 282.3215 0216512 302.6204  55.4163 12.79749288313395
SALSAT
1 46495U 20068K   26254.52047897  .00005784  00000-0  19648-3 0  9990
2 46495  97.8881 262.9312 0009523  10.7121 349.4320 15.30880202328565
CSS (TIANHE-1)
1 48274U 21035A   26254.76757007  .00018178  00000-0  22354-3 0  9998
2 48274  41.4683 156.3611 0002597 271.9652  88.0889 15.59826955306680
TeikyoSat 4
1 49396U 21102B   26254.81867448  .00001470  00000-0  94734-4 0  9995
2 49396  97.3633 280.9297 0011925   3.2129 356.9175 15.09764369265791
Z-Sat
1 49399U 21102E   26254.84848313  .00001904  00000-0  94404-4 0  9997
2 49399  97.3268 287.5475 0014996 308.8114  51.1781 15.18830759266591
KOSEN 1
1 49402U 21102H   26254.68462229  .00005151  00000-0  19153-3 0  9997
2 49402  97.3113 295.1921 0011541 259.3063 100.6878 15.27899549267222
HO-113
1 50466U 21131B   26254.82649316  .00000114  00000-0  48906-4 0  9994
2 50466  98.4979 346.7449 0003894 181.2781 178.8398 14.41422033247593
SNUGLITE 2
1 52899U 22065F   26254.39670485  .00000641  00000-0  13023-3 0  9992
2 52899  98.2328  39.1421 0008660 110.5970 249.6162 14.64480069223616
UmKA 1 (RS40S)
1 57172U 23091G   26254.78825988  .00004337  00000-0  19468-3 0  9999
2 57172  97.4966 313.1630 0012763 169.9057 190.2438 15.21647841177177
CubeBel-2 (EU11S)
1 57175U 23091K   26254.83355198  .00009011  00000-0  30280-3 0  9998
2 57175  97.4968 318.9040 0009955 159.7847 200.3790 15.31022499177556
